Weather History for KOZR - October, 2012

Change the Weather History Date:

Wednesday, October 10, 2012

  Actual Average Record
Temperature  
Mean Temperature 67 °F -  
Max Temperature 80 °F 76 °F 89 °F (2010)
Min Temperature 55 °F 56 °F 39 °F (2000)
Cooling Degree Days 2    
Growing Degree Days 17 (Base 50)    
Moisture  
Dew Point 59 °F    
Average Humidity 82    
Maximum Humidity 97    
Minimum Humidity 49    
Precipitation  
Precipitation 0.00 in - - ()
Sea Level Pressure  
Sea Level Pressure 30.12 in    
Wind  
Wind Speed 2 mph (NNW)    
Max Wind Speed 9 mph    
Max Gust Speed -    
Visibility 9 miles    
Events      
Averages and records for this station are not official NWS values.
T = Trace of Precipitation, MM = Missing Value Source: NWS Daily Summary

Daily Weather History Graph

Daily Weather History Graph

Search for Another Location

Airport or City:

Trip Planner

Search our weather history database for the weather conditions in past years. The results will help you decide how hot, cold, wet, or windy it might be!

Date:

Astronomy

Oct. 10, 2012 Rise Set
Actual Time 6:42 AM CDT 6:16 PM CDT
Civil Twilight 6:18 AM CDT 6:40 PM CDT
Nautical Twilight 5:50 AM CDT 7:08 PM CDT
Astronomical Twilight 5:22 AM CDT 7:36 PM CDT
Moon 1:37 AM CDT (10/10) 3:01 PM CDT (10/10)
Length of Visible Light 12h 22m
Length of Day
11h 33m
Waning Crescent, 27% of the Moon is Illuminated
Oct 10
Waning Crescent
Oct 15
New
Oct 21
First Quarter
Oct 29
Full
Nov 6
Last Quarter

Hourly Weather History & Observations

Time (CDT) Temp. Dew Point Humidity Pressure Visibility Wind Dir Wind Speed Gust Speed Precip Events Conditions
12:55 AM 60.1 °F 58.5 °F 94% 30.08 in 10.0 mi Calm Calm - N/A   Clear
1:23 AM 59.0 °F 57.2 °F 94% 30.09 in 10.0 mi NE 3.5 mph - N/A   Mostly Cloudy
1:55 AM 60.1 °F 58.6 °F 95% 30.09 in 9.0 mi Calm Calm - N/A   Overcast
2:15 AM 60.8 °F 59.0 °F 94% 30.08 in 10.0 mi NE 3.5 mph - N/A   Overcast
2:55 AM 60.8 °F 59.4 °F 95% 30.08 in 9.0 mi NE 3.5 mph - N/A   Overcast
3:29 AM 60.8 °F 59.0 °F 94% 30.09 in 10.0 mi Calm Calm - N/A   Mostly Cloudy
3:34 AM 59.0 °F 57.2 °F 94% 30.09 in 10.0 mi Calm Calm - N/A   Scattered Clouds
3:55 AM 59.0 °F 57.6 °F 95% 30.09 in 10.0 mi Calm Calm - N/A   Clear
4:55 AM 57.6 °F 56.8 °F 97% 30.11 in 6.0 mi Calm Calm - N/A   Partly Cloudy
5:55 AM 57.6 °F 56.3 °F 96% 30.12 in 8.0 mi Calm Calm - N/A   Clear
6:38 AM 55.4 °F 53.6 °F 94% 30.13 in 2.0 mi Calm Calm - N/A   Partly Cloudy
6:55 AM 55.0 °F 54.0 °F 96% 30.14 in 2.0 mi Calm Calm - N/A   Clear
7:55 AM 60.3 °F 58.8 °F 95% 30.15 in 2.0 mi ENE 3.5 mph - N/A   Clear
8:20 AM 60.8 °F 59.0 °F 94% 30.15 in 3.0 mi NE 3.5 mph - N/A   Clear
8:55 AM 63.5 °F 60.8 °F 91% 30.16 in 9.0 mi Calm Calm - N/A   Clear
9:55 AM 69.3 °F 63.3 °F 81% 30.16 in 10.0 mi WNW 5.8 mph - N/A   Clear
11:55 AM 76.3 °F 57.9 °F 53% 30.15 in 10.0 mi Variable 5.8 mph - N/A   Clear
12:55 PM 77.4 °F 58.1 °F 51% 30.12 in 10.0 mi WNW 6.9 mph - N/A   Clear
1:55 PM 79.3 °F 58.6 °F 49% 30.10 in 10.0 mi NW 6.9 mph - N/A   Clear
2:55 PM 79.5 °F 59.2 °F 50% 30.09 in 10.0 mi WNW 9.2 mph - N/A   Clear
3:55 PM 79.9 °F 60.1 °F 51% 30.09 in 10.0 mi NW 8.1 mph - N/A   Clear
4:55 PM 77.9 °F 60.6 °F 55% 30.09 in 10.0 mi NW 5.8 mph - N/A   Clear
5:55 PM 74.3 °F 61.0 °F 63% 30.10 in 10.0 mi NW 4.6 mph - N/A   Partly Cloudy
6:55 PM 71.2 °F 61.3 °F 71% 30.11 in 10.0 mi NW 4.6 mph - N/A   Clear
7:55 PM 70.5 °F 61.2 °F 72% 30.13 in 10.0 mi North 3.5 mph - N/A   Clear
8:55 PM 65.8 °F 60.3 °F 82% 30.14 in 10.0 mi Calm Calm - N/A   Clear
9:55 PM 62.8 °F 60.4 °F 92% 30.16 in 10.0 mi WNW 3.5 mph - N/A   Clear
10:55 PM 63.1 °F 61.0 °F 93% 30.16 in 10.0 mi Calm Calm - N/A   Clear
11:55 PM 61.3 °F 59.0 °F 92% 30.15 in 10.0 mi Calm Calm - N/A   Clear